| time (UTC) | temp F | wind direction | speed knots | gust knots | rain 1hr in | rain 24hr in | rain mn in | humidity % | barometer mb |
| 20260509064504 | 62 | 180 | 6.1 | 8.7 | 0.00 | 0.00 | 0.00 | 65 | 1027.8 |
| 20260509063004 | 62 | 202 | 7.0 | 10.4 | 0.00 | 0.00 | 0.00 | 65 | 1028.0 |
| 20260509061504 | 62 | 202 | 7.0 | 10.4 | 0.00 | 0.00 | 0.00 | 65 | 1028.0 |
| 20260509060005 | 62 | 180 | 7.8 | 11.3 | 0.00 | 0.00 | 0.00 | 65 | 1028.1 |
| 20260509054505 | 62 | 180 | 7.8 | 11.3 | 0.00 | 0.00 | 0.00 | 65 | 1028.1 |
| 20260509053004 | 62 | 180 | 7.8 | 11.3 | 0.00 | 0.00 | 0.00 | 63 | 1028.0 |
| 20260509051504 | 62 | 180 | 7.8 | 11.3 | 0.00 | 0.00 | 0.00 | 63 | 1028.0 |
| 20260509050004 | 63 | 157 | 6.1 | 11.3 | 0.00 | 0.00 | 0.00 | 64 | 1027.9 |
| 20260509044504 | 63 | 157 | 6.1 | 11.3 | 0.00 | 0.00 | 0.00 | 64 | 1027.9 |
| 20260509043005 | 62 | 180 | 7.8 | 10.4 | 0.00 | 0.00 | 0.00 | 67 | 1028.1 |
| 20260509041505 | 62 | 180 | 7.8 | 10.4 | 0.00 | 0.00 | 0.00 | 67 | 1028.1 |
| 20260509040005 | 62 | 202 | 6.1 | 8.7 | 0.00 | 0.00 | 0.00 | 66 | 1028.3 |
| 20260509034504 | 62 | 202 | 6.1 | 8.7 | 0.00 | 0.00 | 0.00 | 66 | 1028.3 |
| 20260509033004 | 62 | 202 | 7.0 | 12.2 | 0.00 | 0.00 | 0.00 | 69 | 1028.7 |
| 20260509031504 | 62 | 202 | 7.0 | 12.2 | 0.00 | 0.00 | 0.00 | 69 | 1028.7 |
| 20260509030005 | 61 | 225 | 7.8 | 11.3 | 0.00 | 0.00 | 0.00 | 71 | 1029.3 |
| 20260509024505 | 61 | 225 | 7.8 | 11.3 | 0.00 | 0.00 | 0.00 | 71 | 1029.3 |
| 20260509023004 | 60 | 202 | 7.0 | 10.4 | 0.00 | 0.00 | 0.00 | 72 | 1030.0 |
| 20260509021504 | 60 | 202 | 7.0 | 10.4 | 0.00 | 0.00 | 0.00 | 72 | 1030.0 |
| 20260509020005 | 60 | 180 | 5.2 | 7.8 | 0.00 | 0.00 | 0.00 | 73 | 1030.2 |
| 20260509014505 | 60 | 180 | 5.2 | 7.8 | 0.00 | 0.00 | 0.00 | 73 | 1030.2 |
| 20260509013004 | 59 | 180 | 7.0 | 11.3 | 0.00 | 0.00 | 0.00 | 80 | 1030.4 |
| 20260509011504 | 59 | 180 | 7.0 | 11.3 | 0.00 | 0.00 | 0.00 | 80 | 1030.4 |
| 20260509010004 | 58 | 202 | 5.2 | 7.0 | 0.00 | 0.00 | 0.00 | 83 | 1030.5 |
| 20260509004504 | 58 | 202 | 5.2 | 7.0 | 0.00 | 0.00 | 0.00 | 83 | 1030.5 |
| 20260509003004 | 56 | 180 | 6.1 | 7.8 | 0.00 | 0.00 | 0.00 | 86 | 1030.6 |
| 20260509001504 | 56 | 180 | 6.1 | 7.8 | 0.00 | 0.00 | 0.00 | 86 | 1030.6 |
| 20260509000006 | 56 | 180 | 6.1 | 8.7 | 0.00 | 0.00 | 0.00 | 88 | 1030.6 |
| 20260508234505 | 56 | 180 | 6.1 | 8.7 | 0.00 | 0.00 | 0.00 | 88 | 1030.6 |
| 20260508233005 | 56 | 180 | 7.0 | 10.4 | 0.00 | 0.00 | 0.00 | 88 | 1030.4 |
| 20260508231505 | 56 | 180 | 7.0 | 10.4 | 0.00 | 0.00 | 0.00 | 88 | 1030.4 |
| 20260508230005 | 55 | 202 | 4.3 | 5.2 | 0.00 | 0.00 | 0.00 | 91 | 1030.1 |
| 20260508224505 | 55 | 202 | 4.3 | 5.2 | 0.00 | 0.00 | 0.00 | 91 | 1030.1 |
| 20260508223004 | 54 | 202 | 2.6 | 5.2 | 0.00 | 0.00 | 0.00 | 92 | 1029.9 |
| 20260508221504 | 54 | 202 | 2.6 | 5.2 | 0.00 | 0.00 | 0.00 | 92 | 1029.9 |
| 20260508220004 | 53 | 202 | 4.3 | 5.2 | 0.00 | 0.00 | 0.00 | 93 | 1029.6 |
| 20260508214504 | 53 | 202 | 4.3 | 5.2 | 0.00 | 0.00 | 0.00 | 93 | 1029.6 |
| 20260508213004 | 54 | 225 | 5.2 | 7.0 | 0.00 | 0.00 | 0.00 | 93 | 1029.3 |
| 20260508211505 | 54 | 225 | 5.2 | 7.0 | 0.00 | 0.00 | 0.00 | 93 | 1029.3 |
| 20260508210005 | 54 | 225 | 5.2 | 7.0 | 0.00 | 0.00 | 0.00 | 94 | 1029.1 |
| 20260508204505 | 54 | 225 | 5.2 | 7.0 | 0.00 | 0.00 | 0.00 | 94 | 1029.1 |
| 20260508203004 | 54 | 202 | 4.3 | 5.2 | 0.00 | 0.00 | 0.00 | 95 | 1028.9 |
| 20260508201504 | 54 | 202 | 4.3 | 5.2 | 0.00 | 0.00 | 0.00 | 95 | 1028.9 |
| 20260508200004 | 53 | 225 | 2.6 | 5.2 | 0.00 | 0.00 | 0.00 | 93 | 1028.9 |
| 20260508194504 | 53 | 225 | 2.6 | 5.2 | 0.00 | 0.00 | 0.00 | 93 | 1028.9 |
| 20260508193005 | 54 | 225 | 4.3 | 6.1 | 0.00 | 0.00 | 0.00 | 93 | 1028.7 |
| 20260508191505 | 54 | 225 | 4.3 | 6.1 | 0.00 | 0.00 | 0.00 | 93 | 1028.7 |
| 20260508190005 | 54 | 202 | 2.6 | 4.3 | 0.00 | 0.00 | 0.00 | 93 | 1028.8 |
| 20260508184505 | 54 | 202 | 2.6 | 4.3 | 0.00 | 0.00 | 0.00 | 93 | 1028.8 |
| 20260508183006 | 54 | 0 | 0.0 | 0.0 | 0.00 | 0.00 | 0.00 | 92 | 1028.8 |
| 20260508181504 | 54 | 0 | 0.0 | 0.0 | 0.00 | 0.00 | 0.00 | 92 | 1028.8 |
| 20260508180004 | 54 | 180 | 0.9 | 4.3 | 0.00 | 0.00 | 0.00 | 92 | 1028.8 |
| 20260508174504 | 54 | 180 | 0.9 | 4.3 | 0.00 | 0.00 | 0.00 | 92 | 1028.8 |
| 20260508173004 | 53 | 180 | 2.6 | 5.2 | 0.00 | 0.00 | 0.00 | 93 | 1028.9 |
| 20260508171504 | 53 | 180 | 2.6 | 5.2 | 0.00 | 0.00 | 0.00 | 93 | 1028.9 |
| 20260508170004 | 53 | 157 | 4.3 | 6.1 | 0.00 | 0.00 | 0.00 | 93 | 1029.0 |
| 20260508164505 | 53 | 157 | 4.3 | 6.1 | 0.00 | 0.00 | 0.00 | 93 | 1029.0 |
| 20260508163004 | 53 | 202 | 6.1 | 11.3 | 0.00 | 0.00 | 0.00 | 93 | 1029.2 |
| 20260508161504 | 53 | 202 | 6.1 | 11.3 | 0.00 | 0.00 | 0.00 | 93 | 1029.2 |
| 20260508160004 | 52 | 225 | 5.2 | 6.1 | 0.00 | 0.00 | 0.00 | 93 | 1029.0 |
| 20260508154504 | 52 | 225 | 5.2 | 6.1 | 0.00 | 0.00 | 0.00 | 93 | 1029.0 |
| 20260508153005 | 52 | 225 | 4.3 | 5.2 | 0.00 | 0.00 | 0.00 | 90 | 1029.2 |
| 20260508151505 | 52 | 225 | 4.3 | 5.2 | 0.00 | 0.00 | 0.00 | 90 | 1029.2 |
| 20260508150005 | 54 | 225 | 5.2 | 7.0 | 0.00 | 0.00 | 0.00 | 88 | 1029.1 |
| 20260508144505 | 54 | 225 | 5.2 | 7.0 | 0.00 | 0.00 | 0.00 | 88 | 1029.1 |
| 20260508143004 | 55 | 225 | 7.0 | 8.7 | 0.00 | 0.00 | 0.00 | 84 | 1029.1 |
| 20260508141504 | 55 | 225 | 7.0 | 8.7 | 0.00 | 0.00 | 0.00 | 84 | 1029.1 |
| 20260508140004 | 56 | 225 | 7.0 | 10.4 | 0.00 | 0.00 | 0.00 | 81 | 1029.2 |
| 20260508134505 | 56 | 225 | 7.0 | 10.4 | 0.00 | 0.00 | 0.00 | 81 | 1029.2 |
| 20260508133005 | 56 | 225 | 7.0 | 8.7 | 0.00 | 0.00 | 0.00 | 81 | 1029.5 |
| 20260508131505 | 56 | 225 | 7.0 | 8.7 | 0.00 | 0.00 | 0.00 | 81 | 1029.5 |
| 20260508130005 | 57 | 225 | 8.7 | 12.2 | 0.00 | 0.00 | 0.00 | 77 | 1029.5 |
| 20260508124504 | 57 | 225 | 8.7 | 12.2 | 0.00 | 0.00 | 0.00 | 77 | 1029.5 |
| 20260508123004 | 57 | 202 | 6.1 | 10.4 | 0.00 | 0.00 | 0.00 | 75 | 1029.5 |
| 20260508121504 | 57 | 202 | 6.1 | 10.4 | 0.00 | 0.00 | 0.00 | 75 | 1029.5 |
| 20260508120004 | 58 | 202 | 7.0 | 8.7 | 0.00 | 0.00 | 0.00 | 73 | 1029.3 |
| 20260508114504 | 58 | 202 | 7.0 | 8.7 | 0.00 | 0.00 | 0.00 | 73 | 1029.3 |
| 20260508113005 | 59 | 202 | 8.7 | 13.9 | 0.00 | 0.00 | 0.00 | 68 | 1029.3 |
| 20260508111505 | 59 | 202 | 8.7 | 13.9 | 0.00 | 0.00 | 0.00 | 68 | 1029.3 |
| 20260508110005 | 60 | 202 | 10.4 | 14.8 | 0.00 | 0.00 | 0.00 | 65 | 1029.3 |
| 20260508104504 | 60 | 202 | 10.4 | 14.8 | 0.00 | 0.00 | 0.00 | 65 | 1029.3 |
| 20260508103004 | 60 | 202 | 10.4 | 14.8 | 0.00 | 0.00 | 0.00 | 67 | 1029.1 |
| 20260508101504 | 60 | 202 | 10.4 | 14.8 | 0.00 | 0.00 | 0.00 | 67 | 1029.1 |
| 20260508100005 | 60 | 202 | 7.0 | 11.3 | 0.00 | 0.00 | 0.00 | 64 | 1028.8 |
| 20260508094505 | 60 | 202 | 7.0 | 11.3 | 0.00 | 0.00 | 0.00 | 64 | 1028.8 |
| 20260508093005 | 61 | 202 | 8.7 | 13.9 | 0.00 | 0.00 | 0.00 | 62 | 1028.6 |
| 20260508091505 | 61 | 202 | 8.7 | 13.9 | 0.00 | 0.00 | 0.00 | 62 | 1028.6 |
| 20260508090005 | 62 | 202 | 11.3 | 14.8 | 0.00 | 0.00 | 0.00 | 61 | 1028.2 |
| 20260508084504 | 62 | 202 | 11.3 | 14.8 | 0.00 | 0.00 | 0.00 | 61 | 1028.2 |
| 20260508083005 | 62 | 202 | 10.4 | 14.8 | 0.00 | 0.00 | 0.00 | 65 | 1028.0 |
| 20260508081504 | 62 | 202 | 10.4 | 14.8 | 0.00 | 0.00 | 0.00 | 65 | 1028.0 |
| 20260508080004 | 63 | 225 | 13.9 | 19.1 | 0.00 | 0.00 | 0.00 | 65 | 1027.8 |
| 20260508074504 | 63 | 225 | 13.9 | 19.1 | 0.00 | 0.00 | 0.00 | 65 | 1027.8 |
| 20260508073004 | 64 | 202 | 13.0 | 19.1 | 0.00 | 0.00 | 0.00 | 64 | 1027.6 |
| 20260508071505 | 64 | 202 | 13.0 | 19.1 | 0.00 | 0.00 | 0.00 | 64 | 1027.6 |
| 20260508070005 | 65 | 202 | 12.2 | 17.4 | 0.00 | 0.00 | 0.00 | 60 | 1027.4 |